Atmospheric History
04/19/2019 18:31  to  4/20/2019 18:31
Change End Date:
To complete the export process:
1) Select all of the data below
2) Copy the data to the clipboard
3) Open a word processor such as Notepad
4) Paste the data into the word processor
5) Save the file

Date/Time (MDT), AirTemp, RH, Dewpoint ,AvgWindSpeed, GustWindSpeed, WindDirection, PrecipType, PrecipIntensity, PrecipAccumulation, PrecipRate
04/20/2019 18:30, 44, 92, 42 ,6, 6, N, None, None, 0.05, 0
04/20/2019 18:30, 44, 92, 42 ,5, 6, N, None, None, 0.05, 0
04/20/2019 18:20, 44, 91, 42 ,3, 4, NW, None, None, 0.05, 0
04/20/2019 18:15, 44, 91, 42 ,4, 6, N, None, None, 0.05, 0
04/20/2019 18:10, 44, 90, 42 ,4, 6, N, None, None, 0.05, 0
04/20/2019 18:00, 44, 90, 42 ,4, 6, N, None, None, 0.05, 0
04/20/2019 18:00, 44, 90, 42 ,3, 6, N, None, None, 0.05, 0
04/20/2019 17:50, 44, 92, 42 ,4, 8, N, None, None, 0.05, 0
04/20/2019 17:45, 44, 94, 42 ,5, 8, N, None, None, 0.05, 0
04/20/2019 17:40, 43, 96, 42 ,6, 7, N, None, None, 0.05, 0
04/20/2019 17:30, 43, 95, 42 ,4, 7, N, None, None, 0.05, 0
04/20/2019 17:30, 44, 95, 42 ,6, 7, N, None, None, 0.05, 0
04/20/2019 17:20, 43, 98, 43 ,4, 9, N, None, None, 0.05, 0
04/20/2019 17:15, 43, 98, 43 ,4, 11, N, None, None, 0.05, 0
04/20/2019 17:10, 43, 98, 42 ,6, 11, N, None, None, 0.05, 0
04/20/2019 17:00, 43, 97, 42 ,7, 12, N, None, None, 0.05, 0
04/20/2019 17:00, 43, 96, 42 ,6, 12, N, None, None, 0.05, 0
04/20/2019 16:50, 43, 96, 43 ,4, 6, N, None, None, 0.05, 0
04/20/2019 16:45, 43, 97, 43 ,4, 6, N, None, None, 0.05, 0
04/20/2019 16:40, 43, 98, 43 ,4, 6, N, None, None, 0.05, 0
04/20/2019 16:30, 43, ,   ,3, 8, N, None, None, 0.05, 0
04/20/2019 16:30, 43, ,   ,4, 10, N, None, None, 0.05, 0
04/20/2019 16:20, 43, ,   ,7, 12, NE, None, None, 0.05, 0
04/20/2019 16:15, 44, 96, 42 ,7, 9, N, None, None, 0.05, 0
04/20/2019 16:10, 44, 93, 42 ,2, 6, N, None, None, 0.05, 0
04/20/2019 16:00, 44, 92, 42 ,2, 7, NW, None, None, 0.05, 0
04/20/2019 16:00, 44, 92, 42 ,3, 7, NW, None, None, 0.05, 0
04/20/2019 15:50, 44, 91, 42 ,3, 7, NW, None, None, 0.05, 0
04/20/2019 15:45, 45, 90, 42 ,4, 7, N, None, None, 0.05, 0
04/20/2019 15:40, 45, 89, 42 ,4, 7, N, None, None, 0.05, 0
04/20/2019 15:30, 44, 87, 41 ,4, 7, N, None, None, 0.05, 0
04/20/2019 15:30, 44, 87, 41 ,4, 7, N, None, None, 0.05, 0
04/20/2019 15:20, 44, 85, 40 ,2, 7, NW, None, None, 0.05, 0
04/20/2019 15:15, 44, 86, 41 ,4, 7, N, None, None, 0.05, 0
04/20/2019 15:10, 44, 88, 41 ,4, 7, N, None, None, 0.05, 0
04/20/2019 15:00, 44, 92, 42 ,2, 9, NW, Yes, Moderate, 0.05, 0
04/20/2019 15:00, 44, 92, 42 ,2, 9, NW, Yes, Moderate, 0.05, 0
04/20/2019 14:50, 44, 91, 41 ,4, 9, NE, Yes, Moderate, 0.05, 0
04/20/2019 14:45, 43, 91, 41 ,6, 9, NE, Yes, Moderate, 0.06, 0
04/20/2019 14:40, 43, 90, 41 ,6, 11, NE, Yes, Moderate, 0.06, 0
04/20/2019 14:30, 43, 91, 41 ,6, 9, NE, Yes, Moderate, 0.06, 0
04/20/2019 14:30, 43, 91, 41 ,6, 9, NE, Yes, Slight, 0.06, 0
04/20/2019 14:20, 43, 94, 42 ,5, 9, NE, Yes, Moderate, 0.06, 0
04/20/2019 14:15, 43, 97, 42 ,5, 11, N, Yes, Moderate, 0.06, 0
04/20/2019 14:10, 43, 98, 43 ,7, 11, N, Yes, Moderate, 0.06, 0
04/20/2019 14:00, 43, ,   ,7, 10, N, Yes, Moderate, 0.06, 0
04/20/2019 13:59, 43, ,   ,6, 10, N, Yes, Moderate, 0.06, 0
04/20/2019 13:49, 43, ,   ,8, 12, N, Yes, Moderate, 0.06, 0
04/20/2019 13:45, 43, ,   ,7, 10, N, Yes, Moderate, 0.06, 0
04/20/2019 13:39, 43, ,   ,6, 9, N, Yes, Moderate, 0.06, 0
04/20/2019 13:30, 43, ,   ,6, 8, N, Yes, Moderate, 0.06, 0
04/20/2019 13:29, 43, ,   ,6, 8, N, Yes, Moderate, 0.06, 0
04/20/2019 13:19, 43, ,   ,5, 7, N, Yes, Moderate, 0.06, 0
04/20/2019 13:15, 43, ,   ,6, 7, N, Yes, Moderate, 0.06, 0
04/20/2019 13:09, 43, ,   ,3, 7, N, Yes, Moderate, 0.06, 0
04/20/2019 13:00, 43, 98, 42 ,6, 9, N, Yes, Moderate, 0.07, 0
04/20/2019 12:59, 43, 98, 43 ,6, 9, N, Yes, Moderate, 0.07, 0
04/20/2019 12:49, 43, 97, 42 ,2, 7, N, Yes, Moderate, 0.07, 0
04/20/2019 12:45, 43, 97, 42 ,4, 7, N, Yes, Moderate, 0.07, 0
04/20/2019 12:39, 43, 96, 42 ,4, 6, N, Yes, Moderate, 0.07, 0
04/20/2019 12:30, 43, 95, 42 ,3, 6, N, Yes, Moderate, 0.07, 0
04/20/2019 12:29, 43, 95, 42 ,3, 6, N, Yes, Moderate, 0.07, 0
04/20/2019 12:19, 43, 93, 42 ,3, 6, NE, Rain, Slight, 0.07, 0
04/20/2019 12:15, 43, 93, 42 ,2, 6, N, Rain, Slight, 0.06, 0
04/20/2019 12:09, 44, 92, 42 ,3, 6, N, Rain, Slight, 0.06, 0
04/20/2019 12:00, 43, 92, 41 ,4, 6, N, Rain, Slight, 0.06, 0
04/20/2019 11:59, 43, 92, 41 ,4, 6, N, Rain, Slight, 0.06, 0
04/20/2019 11:49, 44, 90, 41 ,1, 4, NE, Rain, Slight, 0.06, 0
04/20/2019 11:45, 43, 90, 41 ,3, 4, N, Rain, Slight, 0.06, 0
04/20/2019 11:39, 44, 91, 41 ,1, 7, NE, Yes, Moderate, 0.06, 0
04/20/2019 11:30, 43, 92, 41 ,2, 6, E, None, None, 0.06, 0
04/20/2019 11:29, 43, 92, 41 ,2, 6, E, None, None, 0.06, 0
04/20/2019 11:19, 43, 94, 42 ,4, 6, NE, Rain, Slight, 0.07, 0
04/20/2019 11:15, 43, 95, 42 ,3, 7, NE, Yes, Moderate, 0.07, 0
04/20/2019 11:09, 43, 97, 42 ,4, 7, NE, Yes, Moderate, 0.07, 0
04/20/2019 11:00, 43, ,   ,2, 4, N, Yes, Moderate, 0.07, 0
04/20/2019 10:59, 43, ,   ,2, 4, NE, Yes, Moderate, 0.07, 0
04/20/2019 10:49, 42, ,   ,4, 6, NE, Yes, Moderate, 0.07, 0
04/20/2019 10:45, 42, ,   ,1, 6, NW, Yes, Moderate, 0.07, 0
04/20/2019 10:39, 42, ,   ,3, 6, NE, Yes, Moderate, 0.07, 0
04/20/2019 10:30, 42, ,   ,2, 4, N, Yes, Moderate, 0.07, 0
04/20/2019 10:29, 42, ,   ,2, 4, NE, Yes, Moderate, 0.07, 0
04/20/2019 10:19, 42, ,   ,3, 4, N, Yes, Moderate, 0.07, 0
04/20/2019 10:15, 42, ,   ,1, 2, NE, Yes, Moderate, 0.07, 0
04/20/2019 10:09, 42, ,   ,1, 2, N, Yes, Moderate, 0.07, 0
04/20/2019 10:00, 41, ,   ,2, 4, N, Rain, Slight, 0.07, 0
04/20/2019 09:59, 41, ,   ,2, 4, N, Rain, Slight, 0.07, 0
04/20/2019 09:49, 41, ,   ,1, 3, N, Yes, Moderate, 0.06, 0
04/20/2019 09:45, 41, ,   ,1, 4, NE, Yes, Moderate, 0.06, 0
04/20/2019 09:39, 41, ,   ,2, 4, N, Yes, Moderate, 0.06, 0
04/20/2019 09:30, 41, ,   ,2, 4, N, Yes, Moderate, 0.06, 0
04/20/2019 09:29, 41, ,   ,1, 4, N, Yes, Moderate, 0.06, 0
04/20/2019 09:19, 41, ,   ,2, 4, N, Yes, Moderate, 0.06, 0
04/20/2019 09:15, 41, ,   ,2, 4, N, Yes, Moderate, 0.06, 0
04/20/2019 09:09, 41, ,   ,2, 4, NE, Yes, Moderate, 0.06, 0
04/20/2019 09:00, 40, ,   ,2, 4, NE, Yes, Moderate, 0.06, 0
04/20/2019 08:59, 40, ,   ,2, 4, N, Yes, Moderate, 0.06, 0
04/20/2019 08:49, 40, ,   ,3, 4, N, Rain, Slight, 0.06, 0
04/20/2019 08:45, 39, ,   ,2, 2, N, Yes, Moderate, 0.05, 0
04/20/2019 08:39, 40, ,   ,1, 4, N, Yes, Moderate, 0.05, 0
04/20/2019 08:30, 40, ,   ,3, 4, NW, Yes, Moderate, 0.05, 0
04/20/2019 08:29, 40, ,   ,3, 4, NW, Yes, Moderate, 0.05, 0
04/20/2019 08:18, 38, ,   ,2, 3, N, Yes, Moderate, 0.05, 0
04/20/2019 08:15, 38, ,   ,1, 2, N, Yes, Moderate, 0.05, 0
04/20/2019 08:08, 38, ,   ,1, 1, NE, None, None, 0.05, 0
04/20/2019 08:00, 38, ,   ,1, 1, N, None, None, 0.05, 0
04/20/2019 07:58, 38, ,   ,1, 1, N, None, None, 0.05, 0
04/20/2019 07:48, 38, ,   ,0, 0, N, None, None, 0.05, 0
04/20/2019 07:45, 38, ,   ,0, 1, N, None, None, 0.05, 0
04/20/2019 07:38, 38, ,   ,0, 1, N, None, None, 0.05, 0
04/20/2019 07:30, 38, ,   ,0, 0, W, None, None, 0.05, 0
04/20/2019 07:28, 38, ,   ,0, 0, S, Yes, Moderate, 0.05, 0
04/20/2019 07:18, 38, ,   ,0, 1, S, None, None, 0.05, 0
04/20/2019 07:15, 38, ,   ,1, 1, S, None, None, 0.05, 0
04/20/2019 07:08, 38, ,   ,0, 1, E, None, None, 0.05, 0
04/20/2019 07:00, 37, ,   ,0, 1, N, Yes, Moderate, 0.05, 0
04/20/2019 06:58, 37, ,   ,0, 1, NE, Yes, Slight, 0.05, 0
04/20/2019 06:48, 38, ,   ,0, 1, SE, Yes, Moderate, 0.06, 0
04/20/2019 06:45, 38, ,   ,1, 1, SE, Yes, Moderate, 0.06, 0
04/20/2019 06:38, 38, ,   ,0, 0, S, Yes, Moderate, 0.06, 0
04/20/2019 06:30, 38, ,   ,0, 1, S, Yes, Moderate, 0.06, 0
04/20/2019 06:28, 38, ,   ,0, 1, S, Yes, Moderate, 0.06, 0
04/20/2019 06:18, 38, ,   ,1, 2, S, Yes, Slight, 0.06, 0
04/20/2019 06:15, 38, ,   ,1, 1, SE, Yes, Moderate, 0.06, 0
04/20/2019 06:08, 38, ,   ,0, 2, N, Yes, Moderate, 0.06, 0
04/20/2019 06:00, 38, ,   ,1, 1, NE, None, None, 0.06, 0
04/20/2019 05:58, 38, ,   ,1, 1, NE, None, None, 0.06, 0
04/20/2019 05:48, 39, ,   ,0, 1, E, None, None, 0.06, 0
04/20/2019 05:45, 38, ,   ,1, 1, E, None, None, 0.06, 0
04/20/2019 05:38, 38, ,   ,1, 1, S, None, None, 0.06, 0
04/20/2019 05:30, 38, ,   ,0, 2, N, Yes, Moderate, 0.06, 0
04/20/2019 05:28, 38, ,   ,0, 2, N, Yes, Moderate, 0.06, 0
04/20/2019 05:18, 38, ,   ,1, 2, NE, Rain, Slight, 0.05, 0
04/20/2019 05:15, 38, ,   ,1, 2, N, Yes, Moderate, 0.05, 0
04/20/2019 05:08, 38, ,   ,1, 2, N, Yes, Moderate, 0.05, 0
04/20/2019 05:00, 38, ,   ,1, 1, NE, Yes, Moderate, 0.05, 0
04/20/2019 04:58, 38, ,   ,1, 1, N, Yes, Moderate, 0.05, 0
04/20/2019 04:48, 38, ,   ,1, 1, N, Yes, Moderate, 0.05, 0
04/20/2019 04:45, 38, ,   ,1, 1, NW, Yes, Moderate, 0.05, 0
04/20/2019 04:38, 39, ,   ,0, 2, E, None, None, 0.05, 0
04/20/2019 04:30, 39, 98, 38 ,2, 3, N, Yes, Moderate, 0.05, 0
04/20/2019 04:28, 39, ,   ,2, 3, N, Yes, Moderate, 0.05, 0
04/20/2019 04:18, 38, 97, 38 ,2, 3, N, None, None, 0.05, 0
04/20/2019 04:15, 38, 97, 38 ,2, 3, N, None, None, 0.05, 0
04/20/2019 04:08, 39, 97, 38 ,1, 2, N, Yes, Moderate, 0.05, 0
04/20/2019 04:00, 39, 95, 38 ,2, 2, N, Yes, Moderate, 0.05, 0
04/20/2019 03:58, 39, 95, 38 ,1, 2, N, Yes, Moderate, 0.05, 0
04/20/2019 03:48, 40, 95, 38 ,2, 3, N, Yes, Moderate, 0.05, 0
04/20/2019 03:45, 39, 95, 38 ,2, 3, N, None, None, 0.05, 0
04/20/2019 03:38, 40, 94, 38 ,2, 3, N, None, None, 0.05, 0
04/20/2019 03:30, 40, 94, 38 ,2, 3, N, None, None, 0.05, 0
04/20/2019 03:27, 40, 94, 38 ,2, 3, N, Yes, Moderate, 0.05, 0
04/20/2019 03:17, 40, 94, 38 ,2, 3, N, None, None, 0.06, 0
04/20/2019 03:15, 40, 95, 38 ,2, 2, N, None, None, 0.06, 0
04/20/2019 03:07, 40, 95, 39 ,2, 3, N, None, None, 0.06, 0
04/20/2019 03:00, 40, 96, 39 ,2, 3, N, None, None, 0.06, 0
04/20/2019 02:57, 40, 96, 39 ,2, 3, N, None, None, 0.07, 0
04/20/2019 02:47, 40, 97, 39 ,2, 3, N, None, None, 0.07, 0
04/20/2019 02:45, 40, 96, 39 ,2, 3, N, None, None, 0.07, 0
04/20/2019 02:37, 40, 97, 39 ,2, 3, N, None, None, 0.07, 0
04/20/2019 02:30, 40, 97, 39 ,2, 3, N, None, None, 0.07, 0
04/20/2019 02:27, 40, 98, 39 ,2, 3, N, None, None, 0.07, 0
04/20/2019 02:17, 39, 98, 39 ,2, 2, N, None, None, 0.07, 0
04/20/2019 02:15, 39, 98, 39 ,2, 2, N, None, None, 0.07, 0
04/20/2019 02:07, 40, 98, 39 ,1, 2, N, None, None, 0.07, 0
04/20/2019 02:00, 40, ,   ,2, 2, N, None, None, 0.07, 0
04/20/2019 01:57, 40, ,   ,2, 2, N, None, None, 0.07, 0
04/20/2019 01:47, 39, ,   ,2, 4, N, None, None, 0.07, 0
04/20/2019 01:45, 39, ,   ,2, 3, N, None, None, 0.07, 0
04/20/2019 01:37, 39, ,   ,3, 3, N, None, None, 0.07, 0
04/20/2019 01:30, 40, ,   ,2, 3, N, None, None, 0.07, 0
04/20/2019 01:27, 39, ,   ,2, 3, N, None, None, 0.07, 0
04/20/2019 01:17, 40, ,   ,1, 2, N, None, None, 0.07, 0
04/20/2019 01:15, 40, ,   ,1, 2, N, None, None, 0.07, 0
04/20/2019 01:07, 40, ,   ,2, 2, N, None, None, 0.07, 0
04/20/2019 01:00, 39, ,   ,2, 4, N, None, None, 0.07, 0
04/20/2019 00:57, 39, ,   ,2, 4, N, None, None, 0.07, 0
04/20/2019 00:47, 39, 98, 39 ,2, 3, N, None, None, 0.07, 0
04/20/2019 00:45, 39, 98, 39 ,2, 3, N, None, None, 0.07, 0
04/20/2019 00:37, 39, 97, 39 ,1, 2, N, None, None, 0.07, 0
04/20/2019 00:30, 40, 97, 39 ,1, 3, N, None, None, 0.07, 0
04/20/2019 00:27, 40, 96, 39 ,2, 4, N, None, None, 0.07, 0
04/20/2019 00:17, 42, 95, 40 ,4, 6, NE, None, None, 0.07, 0
04/20/2019 00:15, 42, 94, 40 ,3, 7, N, None, None, 0.07, 0
04/20/2019 00:07, 43, 90, 40 ,4, 9, NE, None, None, 0.07, 0
04/20/2019 00:00, 45, 89, 42 ,7, 12, NE, None, None, 0.07, 0
04/19/2019 23:57, 45, 92, 43 ,7, 12, NE, None, None, 0.07, 0
04/19/2019 23:47, 43, 96, 42 ,3, 7, N, None, None, 0.07, 0
04/19/2019 23:45, 43, 98, 43 ,4, 7, NE, None, None, 0.07, 0
04/19/2019 23:37, 42, 95, 40 ,2, 4, N, Yes, Moderate, 0.07, 0
04/19/2019 23:30, 42, 93, 40 ,2, 4, N, Yes, Moderate, 0.07, 0
04/19/2019 23:27, 41, 93, 40 ,1, 4, N, Yes, Moderate, 0.07, 0
04/19/2019 23:17, 41, 91, 39 ,2, 4, N, None, None, 0.06, 0
04/19/2019 23:15, 41, 91, 39 ,2, 4, N, None, None, 0.06, 0
04/19/2019 23:07, 41, 90, 38 ,2, 3, N, None, None, 0.06, 0
04/19/2019 23:00, 41, 91, 39 ,2, 3, N, None, None, 0.06, 0
04/19/2019 22:57, 41, 91, 39 ,2, 3, N, None, None, 0.06, 0
04/19/2019 22:47, 41, 90, 38 ,1, 2, N, None, None, 0.06, 0
04/19/2019 22:45, 41, 91, 39 ,1, 2, N, None, None, 0.06, 0
04/19/2019 22:37, 41, 92, 40 ,2, 2, N, None, None, 0.06, 0
04/19/2019 22:30, 42, 92, 39 ,1, 2, NE, None, None, 0.06, 0
04/19/2019 22:27, 41, 93, 40 ,2, 2, N, None, None, 0.06, 0
04/19/2019 22:17, 42, 93, 40 ,0, 2, NE, None, None, 0.06, 0
04/19/2019 22:15, 42, 93, 40 ,0, 2, W, None, None, 0.06, 0
04/19/2019 22:07, 42, 92, 40 ,1, 2, N, None, None, 0.06, 0
04/19/2019 22:00, 41, 91, 39 ,1, 2, N, None, None, 0.06, 0
04/19/2019 21:57, 41, 91, 39 ,2, 2, N, None, None, 0.06, 0
04/19/2019 21:47, 42, 90, 39 ,1, 3, N, None, None, 0.06, 0
04/19/2019 21:45, 42, 90, 39 ,1, 3, N, None, None, 0.06, 0
04/19/2019 21:37, 42, 89, 39 ,2, 3, N, None, None, 0.06, 0
04/19/2019 21:30, 43, 88, 39 ,2, 6, N, None, None, 0.06, 0
04/19/2019 21:27, 44, 89, 41 ,4, 6, N, None, None, 0.06, 0
04/19/2019 21:17, 42, 89, 39 ,2, 3, N, None, None, 0.06, 0
04/19/2019 21:15, 42, 88, 39 ,2, 3, N, None, None, 0.06, 0
04/19/2019 21:07, 42, 87, 39 ,2, 3, N, None, None, 0.06, 0
04/19/2019 21:00, 43, 87, 40 ,1, 3, N, None, None, 0.06, 0
04/19/2019 20:57, 43, 87, 39 ,1, 3, NE, None, None, 0.06, 0
04/19/2019 20:46, 45, 83, 40 ,0, 3, W, None, None, 0.06, 0
04/19/2019 20:45, 46, 83, 41 ,0, 3, E, None, None, 0.06, 0
04/19/2019 20:36, 46, 86, 42 ,1, 3, E, None, None, 0.06, 0
04/19/2019 20:30, 46, 90, 43 ,1, 4, E, None, None, 0.06, 0
04/19/2019 20:26, 44, 89, 41 ,2, 4, W, None, None, 0.06, 0
04/19/2019 20:16, 44, 86, 41 ,1, 4, N, None, None, 0.06, 0
04/19/2019 20:15, 45, 87, 42 ,0, 4, NE, None, None, 0.06, 0
04/19/2019 20:06, 46, 86, 42 ,1, 6, NE, None, None, 0.06, 0
04/19/2019 20:00, 46, 86, 42 ,3, 6, NE, None, None, 0.06, 0
04/19/2019 19:56, 46, 86, 42 ,4, 6, NE, None, None, 0.06, 0
04/19/2019 19:46, 47, 85, 42 ,2, 6, N, None, None, 0.06, 0
04/19/2019 19:45, 46, 84, 42 ,4, 6, NE, None, None, 0.06, 0
04/19/2019 19:36, 48, 84, 43 ,4, 5, NE, None, None, 0.06, 0
04/19/2019 19:30, 48, 79, 42 ,3, 6, NE, None, None, 0.06, 0
04/19/2019 19:26, 50, 81, 45 ,2, 6, E, None, None, 0.06, 0
04/19/2019 19:16, 49, 83, 45 ,4, 6, NE, None, None, 0.06, 0
04/19/2019 19:15, 49, 83, 44 ,4, 6, NE, None, None, 0.06, 0
04/19/2019 19:06, 50, 80, 44 ,2, 7, NE, None, None, 0.06, 0
04/19/2019 19:00, 51, 80, 45 ,5, 7, N, None, None, 0.06, 0
04/19/2019 18:56, 50, 79, 44 ,4, 9, NE, None, None, 0.06, 0
04/19/2019 18:46, 51, 74, 43 ,4, 8, NE, None, None, 0.06, 0
04/19/2019 18:45, 51, 74, 44 ,4, 8, NE, None, None, 0.06, 0
04/19/2019 18:36, 52, 74, 44 ,6, 10, NE, None, None, 0.06, 0
Change End Date:

Copyright © 1998-2015 Vaisala, Inc.
All Rights Reserved
Send comments about the data to:
SCAN Web ® is a registered trademark of Vaisala, Inc.
SCAN Web Version 6.0